Location: Praha
(50.0830°N, 14.4670°E)
Time: 16:45:28
(UTC+02:00)

ISS - Pass Details

Date: 17 May 2022
Orbit: 414 x 421 km, 51.6° (Epoch: 28 May)

Event Time Altitude Azimuth Distance (km) Brightness Sun altitude
Rises 01:44:07 0° 287° (WNW) 2,357 0.1 -19.9°
Reaches altitude 10° 01:46:13 10° 285° (WNW) 1,492 -0.9 -19.8°
Enters shadow 01:47:44 24° 281° (W) 896 -2.1 -19.8°
